^^
Datos históricos de la estación: Murcia-Puente Tocinos
Diario Informe para Abril 16, 2021 Unidades:  Métrico    Ingés   Ambas
Diario Semanal Mensual Anual
  Máxima: Mínima: Promedio:
Temperatura: 19.2 °C 9.5 °C 13.1 °C
Punto de rocio: 9.7 °C 2.3 °C 7.6 °C
Humedad: 94% 32.9% 73%
Velocidad viento: 21.7km/h 3.2km/h 8.7km/h
Racha viento: 35.2km/h - -
Viento- - SE
Presión: 1018.5 hPa 1012.8 hPa -
Precipitación: 2.3 mm    
 
 
Tabla de datos para Abril 16, 2021
Hora Temperatura Punto de rocio Presión Viento Velocidad viento Racha viento Humedad Intensidad lluvia(por hora) Nubes
00:04 10.4 °C 9.4 °C 1015.9 hPa SSO 7.6 km/h 14.8 km/h 93.3% 0.0 mm
00:09 10.4 °C 9.4 °C 1015.9 hPa Sur 7.6 km/h 14.5 km/h 93.7% 0.0 mm
00:14 10.4 °C 9.5 °C 1015.9 hPa SSE 7.6 km/h 11.1 km/h 94% 0.0 mm
00:19 10.5 °C 9.6 °C 1015.8 hPa Sur 7.6 km/h 11.3 km/h 94% 0.0 mm
00:24 10.5 °C 9.6 °C 1015.8 hPa Sur 7.6 km/h 11.9 km/h 94% 0.0 mm
00:29 10.4 °C 9.5 °C 1015.9 hPa Sur 7 km/h 13 km/h 94% 0.0 mm
00:34 10.4 °C 9.5 °C 1015.9 hPa Sur 6.9 km/h 13 km/h 94% 0.0 mm
00:39 10.4 °C 9.5 °C 1015.9 hPa Sur 7.4 km/h 11.3 km/h 94% 0.0 mm
00:44 10.4 °C 9.5 °C 1015.9 hPa SSE 7.6 km/h 11.1 km/h 94% 0.0 mm
00:49 10.4 °C 9.5 °C 1015.8 hPa Sur 7.2 km/h 11.3 km/h 94% 0.0 mm
00:54 10.4 °C 9.5 °C 1015.8 hPa SSE 6.9 km/h 11.3 km/h 94% 0.0 mm
00:59 10.4 °C 9.5 °C 1015.8 hPa Sur 6 km/h 11.1 km/h 94% 0.0 mm
01:04 10.4 °C 9.5 °C 1015.6 hPa Sur 5.8 km/h 11.3 km/h 94% 0.0 mm
01:09 10.4 °C 9.5 °C 1015.6 hPa Sur 7.2 km/h 11.3 km/h 94% 0.0 mm
01:14 10.4 °C 9.5 °C 1015.7 hPa Sur 7.6 km/h 11.3 km/h 93.8% 0.0 mm
01:19 10.4 °C 9.5 °C 1015.7 hPa SSO 6.8 km/h 9.7 km/h 93.9% 0.0 mm
01:24 10.5 °C 9.4 °C 1015.7 hPa Sur 6.5 km/h 9.5 km/h 93% 0.0 mm
01:29 10.5 °C 9.4 °C 1015.7 hPa SSO 5.9 km/h 7.6 km/h 93% 0.0 mm
01:34 10.6 °C 9.5 °C 1015.6 hPa SSO 5.8 km/h 4.7 km/h 93.2% 0.0 mm
01:39 10.6 °C 9.5 °C 1015.6 hPa SO 3.9 km/h 5.8 km/h 93% 0.0 mm
01:44 10.6 °C 9.5 °C 1015.7 hPa SSO 3.2 km/h 8.4 km/h 93% 0.0 mm
01:49 10.6 °C 9.5 °C 1015.7 hPa SSO 3.7 km/h 8 km/h 93% 0.0 mm
01:54 10.7 °C 9.6 °C 1015.7 hPa Sur 3.9 km/h 10 km/h 93% 0.0 mm
01:59 10.7 °C 9.6 °C 1015.7 hPa Sur 5.1 km/h 10 km/h 93% 0.0 mm
02:04 10.7 °C 9.6 °C 1015.6 hPa Sur 5.8 km/h 10 km/h 93% 0.0 mm
02:09 10.8 °C 9.7 °C 1015.6 hPa Sur 5.8 km/h 9.7 km/h 93% 0.0 mm
02:14 10.8 °C 9.7 °C 1015.6 hPa Sur 5.8 km/h 9.7 km/h 92.7% 0.0 mm
02:19 10.9 °C 9.7 °C 1015.6 hPa Sur 6.2 km/h 11.1 km/h 92% 0.0 mm
02:24 10.9 °C 9.7 °C 1015.6 hPa Sur 6.5 km/h 11.3 km/h 92% 0.0 mm
02:29 10.9 °C 9.7 °C 1015.6 hPa Sur 6.9 km/h 11.3 km/h 92% 0.0 mm
02:34 10.9 °C 9.7 °C 1015.4 hPa Sur 6.9 km/h 9.7 km/h 92% 0.0 mm
02:39 10.9 °C 9.7 °C 1015.4 hPa Sur 6.6 km/h 9.7 km/h 92% 0.0 mm
02:44 10.9 °C 9.7 °C 1015.4 hPa SSO 6.4 km/h 8.4 km/h 92% 0.0 mm
02:49 10.9 °C 9.7 °C 1015.4 hPa SSO 5.4 km/h 8 km/h 92% 0.0 mm
02:54 10.9 °C 9.7 °C 1015.4 hPa SSO 5 km/h 9.3 km/h 92% 0.0 mm
02:59 10.9 °C 9.7 °C 1015.4 hPa SSO 5 km/h 9.7 km/h 91.9% 0.0 mm
03:04 10.9 °C 9.5 °C 1015.3 hPa SSO 5 km/h 8 km/h 91.1% 0.0 mm
03:09 10.9 °C 9.5 °C 1015.3 hPa SO 4.8 km/h 8.4 km/h 91% 0.0 mm
03:14 10.9 °C 9.5 °C 1015.3 hPa SO 4.6 km/h 8.4 km/h 91% 0.0 mm
03:19 10.9 °C 9.5 °C 1015.2 hPa SO 4.8 km/h 8 km/h 91% 0.0 mm
03:24 10.9 °C 9.5 °C 1015.2 hPa SO 5 km/h 8 km/h 91% 0.0 mm
03:29 10.8 °C 9.5 °C 1015.2 hPa SO 4.3 km/h 8 km/h 91% 0.0 mm
03:34 10.8 °C 9.4 °C 1015.1 hPa SSO 3.9 km/h 8 km/h 91% 0.0 mm
03:39 10.8 °C 9.4 °C 1015.1 hPa Sur 4.4 km/h 8 km/h 91% 0.0 mm
03:44 10.8 °C 9.4 °C 1015.1 hPa SSO 4.6 km/h 8 km/h 91% 0.0 mm
03:49 10.8 °C 9.5 °C 1015.0 hPa SSO 3.5 km/h 8 km/h 91.5% 0.0 mm
03:54 10.8 °C 9.5 °C 1015.0 hPa SSO 3.2 km/h 8.4 km/h 91.5% 0.0 mm
03:59 10.8 °C 9.4 °C 1015.0 hPa SO 4.5 km/h 8.4 km/h 91.1% 0.0 mm
04:04 10.8 °C 9.3 °C 1014.9 hPa SO 5 km/h 9.7 km/h 91% 0.0 mm
04:09 10.7 °C 9.3 °C 1014.9 hPa SSO 5 km/h 7.6 km/h 91% 0.0 mm
04:14 10.7 °C 9.3 °C 1014.9 hPa SSO 5 km/h 8.4 km/h 91% 0.0 mm
04:19 10.7 °C 9.3 °C 1014.9 hPa Sur 5 km/h 10 km/h 91% 0.0 mm
04:24 10.7 °C 9.3 °C 1014.9 hPa SSO 5 km/h 11.1 km/h 91% 0.0 mm
04:29 10.7 °C 9.3 °C 1015.0 hPa SSO 5.9 km/h 11.3 km/h 91% 0.0 mm
04:34 10.7 °C 9.3 °C 1015.0 hPa SSO 6.9 km/h 11.1 km/h 91% 0.0 mm
04:39 10.6 °C 9.2 °C 1015.0 hPa SSO 6.9 km/h 11.1 km/h 91% 0.0 mm
04:44 10.6 °C 9.2 °C 1015.0 hPa SO 6.9 km/h 11.3 km/h 91% 0.0 mm
04:48 10.5 °C 9.1 °C 1014.9 hPa SO 6.5 km/h 11.1 km/h 91% 0.0 mm
04:54 10.4 °C 9 °C 1014.9 hPa SSO 6.6 km/h 11.3 km/h 91% 0.0 mm
04:59 10.5 °C 9 °C 1014.9 hPa SSO 6.8 km/h 11.3 km/h 90.3% 0.0 mm
05:04 10.6 °C 9 °C 1014.8 hPa SSO 6.9 km/h 11.3 km/h 90% 0.0 mm
05:09 10.6 °C 9 °C 1014.8 hPa Sur 6.9 km/h 13 km/h 90% 0.0 mm
05:14 10.6 °C 9.1 °C 1014.9 hPa SSO 7 km/h 12.9 km/h 90.3% 0.0 mm
05:19 10.5 °C 9.1 °C 1014.9 hPa SSO 6.9 km/h 9.7 km/h 91% 0.0 mm
05:24 10.5 °C 9.1 °C 1014.9 hPa Sur 6.9 km/h 9.7 km/h 91% 0.0 mm
05:29 10.5 °C 9.1 °C 1014.9 hPa Sur 6.6 km/h 9.7 km/h 91% 0.0 mm
05:34 10.4 °C 9 °C 1014.9 hPa Sur 6.5 km/h 11.1 km/h 91% 0.0 mm
05:39 10.3 °C 8.8 °C 1014.9 hPa Sur 6.8 km/h 11.3 km/h 91% 0.0 mm
05:44 10.2 °C 8.8 °C 1015.0 hPa SSO 6.9 km/h 11.1 km/h 91% 0.0 mm
05:49 10.2 °C 8.8 °C 1015.0 hPa Sur 6.9 km/h 11.3 km/h 91% 0.0 mm
05:54 10.1 °C 8.7 °C 1015.0 hPa Sur 6.9 km/h 11.3 km/h 91% 0.0 mm
05:59 10 °C 8.6 °C 1015.0 hPa Sur 6.5 km/h 13 km/h 91% 0.0 mm
06:04 9.9 °C 8.5 °C 1014.9 hPa Sur 6.5 km/h 14.5 km/h 91% 0.0 mm
06:09 9.8 °C 8.4 °C 1014.9 hPa Sur 7.9 km/h 13 km/h 91% 0.0 mm
06:14 9.8 °C 8.4 °C 1015.0 hPa SSO 8.7 km/h 13 km/h 91% 0.0 mm
06:19 9.8 °C 8.3 °C 1015.0 hPa SSO 8.7 km/h 14.5 km/h 90.4% 0.0 mm
06:24 9.9 °C 8.3 °C 1015.0 hPa SSO 8.7 km/h 14.8 km/h 89.8% 0.0 mm
06:29 9.9 °C 8.2 °C 1015.0 hPa SSO 8.5 km/h 12.9 km/h 89% 0.0 mm
06:34 9.9 °C 8.2 °C 1015.0 hPa Sur 8.4 km/h 13 km/h 89% 0.0 mm
06:39 9.9 °C 8.1 °C 1015.0 hPa Sur 7.4 km/h 12.9 km/h 89% 0.0 mm
06:44 9.8 °C 8.1 °C 1015.0 hPa Sur 6.9 km/h 11.3 km/h 89% 0.0 mm
06:49 9.8 °C 8 °C 1015.0 hPa Sur 6.6 km/h 11.1 km/h 89% 0.0 mm
06:54 9.7 °C 8 °C 1015.0 hPa SSO 6.5 km/h 11.3 km/h 89% 0.0 mm
06:59 9.7 °C 8 °C 1015.0 hPa SSO 6.7 km/h 11.9 km/h 89% 0.0 mm
07:04 9.6 °C 7.9 °C 1015.0 hPa SSO 6.9 km/h 11.9 km/h 89% 0.0 mm
07:09 9.6 °C 7.9 °C 1015.0 hPa SSO 7.4 km/h 14.8 km/h 89% 0.0 mm
07:14 9.6 °C 7.9 °C 1015.0 hPa SSO 7.6 km/h 11.1 km/h 89% 0.0 mm
07:19 9.6 °C 7.8 °C 1015.0 hPa Sur 8.1 km/h 13 km/h 88.3% 0.0 mm
07:24 9.5 °C 7.7 °C 1015.0 hPa Sur 8.4 km/h 14.8 km/h 88% 0.0 mm
07:29 9.5 °C 7.6 °C 1015.2 hPa Sur 8.6 km/h 14.8 km/h 88% 0.0 mm
07:34 9.5 °C 7.6 °C 1015.2 hPa SSO 8.7 km/h 16.7 km/h 88% 0.0 mm
07:39 9.5 °C 7.4 °C 1015.2 hPa Sur 9.3 km/h 16.7 km/h 87% 0.0 mm
07:44 9.5 °C 7.4 °C 1015.3 hPa SSO 10 km/h 18.5 km/h 87% 0.0 mm
07:49 9.6 °C 7.5 °C 1015.3 hPa SSO 11.4 km/h 19.3 km/h 86.5% 0.0 mm
07:54 9.6 °C 7.4 °C 1015.3 hPa SSO 11.9 km/h 19.3 km/h 86% 0.0 mm
07:59 9.7 °C 7.4 °C 1015.3 hPa SSO 11.4 km/h 16.1 km/h 86% 0.0 mm
08:04 9.7 °C 7.4 °C 1015.3 hPa SSO 11.1 km/h 14.5 km/h 85.8% 0.0 mm
08:09 9.7 °C 7.3 °C 1015.3 hPa SSO 9.1 km/h 14.5 km/h 85% 0.0 mm
08:14 9.8 °C 7.4 °C 1015.4 hPa SO 8.4 km/h 12.9 km/h 85% 0.0 mm
08:19 9.8 °C 7.4 °C 1015.4 hPa Sur 7.4 km/h 11.3 km/h 85% 0.0 mm
08:24 9.8 °C 7.4 °C 1015.4 hPa SSO 7 km/h 9.7 km/h 85% 0.0 mm
08:29 9.9 °C 7.5 °C 1015.5 hPa SSO 5.4 km/h 11.1 km/h 85% 0.0 mm
08:34 10 °C 7.6 °C 1015.5 hPa SSO 5 km/h 11.3 km/h 84.8% 0.0 mm
08:39 10.1 °C 7.5 °C 1015.5 hPa SSO 6.1 km/h 11.3 km/h 84% 0.0 mm
08:44 10.2 °C 7.6 °C 1015.5 hPa SSO 6.5 km/h 14.8 km/h 83.7% 0.0 mm
08:49 10.3 °C 7.6 °C 1015.4 hPa SSO 7 km/h 13.7 km/h 83% 0.0 mm
08:54 10.4 °C 7.6 °C 1015.4 hPa SO 7.6 km/h 14.5 km/h 82.5% 0.0 mm
08:59 10.6 °C 7.7 °C 1015.4 hPa SSO 7.2 km/h 16.4 km/h 82% 0.0 mm
09:04 10.8 °C 7.7 °C 1015.4 hPa SSO 6.9 km/h 16.7 km/h 81.2% 0.0 mm
09:09 10.9 °C 7.8 °C 1015.4 hPa SSO 6.9 km/h 16.1 km/h 81% 0.0 mm
09:14 11 °C 7.7 °C 1015.6 hPa SSO 6.9 km/h 13 km/h 80% 0.0 mm
09:19 11.1 °C 7.8 °C 1015.6 hPa SSO 7.5 km/h 13 km/h 80% 0.0 mm
09:24 11.3 °C 7.8 °C 1015.6 hPa SSO 7.6 km/h 13 km/h 79.5% 0.0 mm
09:29 11.4 °C 7.9 °C 1015.7 hPa Sur 7.1 km/h 15.6 km/h 79.3% 0.0 mm
09:34 11.5 °C 7.8 °C 1015.7 hPa SSO 6.9 km/h 13.7 km/h 78.2% 0.0 mm
09:39 11.6 °C 7.9 °C 1015.7 hPa SSO 8.2 km/h 13 km/h 78% 0.0 mm
09:44 11.8 °C 8 °C 1015.7 hPa Sur 8.7 km/h 12.9 km/h 77.6% 0.0 mm
09:47 11.9 °C 8 °C 1015.7 hPa SSO 8.1 km/h 11.3 km/h 77.2% 0.0 mm
09:54 12.1 °C 8 °C 1015.7 hPa SSO 6.5 km/h 13 km/h 76% 0.0 mm
09:59 12.2 °C 7.9 °C 1015.7 hPa Sur 6.9 km/h 14.8 km/h 75.2% 0.0 mm
10:04 12.3 °C 7.9 °C 1015.7 hPa SSO 6.9 km/h 14.5 km/h 74.1% 0.0 mm
10:09 12.4 °C 7.9 °C 1015.7 hPa SO 7.8 km/h 14.5 km/h 74% 0.0 mm
10:14 12.6 °C 8.1 °C 1015.8 hPa SSO 8.4 km/h 12.9 km/h 74% 0.0 mm
10:19 12.7 °C 8.1 °C 1015.8 hPa SO 7.8 km/h 15.6 km/h 74% 0.0 mm
10:24 12.8 °C 8.2 °C 1015.8 hPa SSO 7.6 km/h 16.7 km/h 73.8% 0.0 mm
10:29 12.8 °C 8.1 °C 1015.9 hPa SSO 8.1 km/h 14.5 km/h 73% 0.0 mm
10:34 13 °C 8.1 °C 1015.9 hPa SSO 8.4 km/h 14.8 km/h 72.1% 0.0 mm
10:39 13.2 °C 8.2 °C 1015.9 hPa SSO 8.5 km/h 14.5 km/h 72% 0.0 mm
10:44 13.3 °C 8.2 °C 1015.9 hPa Sur 8.7 km/h 15.6 km/h 71.2% 0.0 mm
10:49 13.5 °C 8.3 °C 1015.9 hPa SSO 7.2 km/h 18.5 km/h 70.7% 0.0 mm
10:54 13.6 °C 8.1 °C 1015.9 hPa SSO 6.5 km/h 19.3 km/h 69.7% 0.0 mm
10:59 13.6 °C 7.9 °C 1016.0 hPa OSO 9.2 km/h 14.5 km/h 68.5% 0.0 mm
11:04 13.7 °C 7.9 °C 1016.0 hPa SO 9.5 km/h 14.8 km/h 68.3% 0.0 mm
11:09 13.8 °C 8.1 °C 1016.0 hPa SO 7.1 km/h 11.1 km/h 68.3% 0.0 mm
11:14 14 °C 8.1 °C 1016.1 hPa SSO 6.5 km/h 13.7 km/h 67.8% 0.0 mm
11:19 14.2 °C 8.2 °C 1016.1 hPa SO 6.7 km/h 16.7 km/h 67.1% 0.0 mm
11:24 14.3 °C 8.1 °C 1016.1 hPa Sur 6.9 km/h 13.7 km/h 66.3% 0.0 mm
11:29 14.4 °C 8.1 °C 1016.1 hPa OSO 6.9 km/h 14.5 km/h 66% 0.0 mm
11:34 14.6 °C 8.2 °C 1016.1 hPa SSO 6.9 km/h 11.1 km/h 65.6% 0.0 mm
11:39 14.8 °C 8.1 °C 1016.1 hPa Sur 6.1 km/h 13.7 km/h 64% 0.0 mm
11:44 14.9 °C 7.6 °C 1016.1 hPa SSO 5.8 km/h 14.5 km/h 61.9% 0.0 mm
11:49 15 °C 7.7 °C 1016.0 hPa SSE 7.2 km/h 13 km/h 61.8% 0.0 mm
11:54 15.2 °C 8 °C 1016.0 hPa Oeste 7.6 km/h 12.9 km/h 62% 0.0 mm
11:59 15.4 °C 7.6 °C 1016.0 hPa Sur 6.4 km/h 13.7 km/h 59.4% 0.0 mm
12:04 15.6 °C 6.9 °C 1015.9 hPa Sur 5.8 km/h 15.6 km/h 56.2% 0.0 mm
12:09 15.7 °C 6.1 °C 1015.9 hPa SE 8.9 km/h 16.7 km/h 52.7% 0.0 mm
12:14 15.8 °C 6.4 °C 1015.9 hPa SO 9.5 km/h 16.1 km/h 53.8% 0.0 mm
12:19 15.9 °C 6.2 °C 1015.9 hPa SO 7.9 km/h 12.9 km/h 52.5% 0.0 mm
12:24 16 °C 6.2 °C 1015.9 hPa SO 7.6 km/h 11.1 km/h 52% 0.0 mm
12:29 16.2 °C 5.7 °C 1015.9 hPa NNO 6.2 km/h 13 km/h 50.1% 0.0 mm
12:34 16.3 °C 5.5 °C 1015.8 hPa NNE 5.8 km/h 16.7 km/h 48.7% 0.0 mm
12:39 16.3 °C 5.1 °C 1015.8 hPa NNE 7 km/h 16.1 km/h 47.5% 0.0 mm
12:44 16.5 °C 4.9 °C 1015.8 hPa ENE 7.6 km/h 10 km/h 46.3% 0.0 mm
12:49 16.7 °C 4.9 °C 1015.7 hPa North 6.8 km/h 10 km/h 45.6% 0.0 mm
12:54 16.7 °C 4.6 °C 1015.7 hPa Este 6.5 km/h 9.7 km/h 44.7% 0.0 mm
12:59 16.9 °C 4.8 °C 1015.7 hPa Este 5 km/h 11.9 km/h 44.9% 0.0 mm
13:04 17.1 °C 4.9 °C 1015.6 hPa Este 4.7 km/h 9.5 km/h 44.3% 0.0 mm
13:09 17.1 °C 4.7 °C 1015.6 hPa Sur 6 km/h 13.7 km/h 43.9% 0.0 mm
13:14 17.1 °C 4.7 °C 1015.6 hPa SSE 6.9 km/h 13 km/h 43.9% 0.0 mm
13:19 17.3 °C 4.7 °C 1015.4 hPa Sur 6.9 km/h 12.9 km/h 43.3% 0.0 mm
13:24 17.5 °C 4.7 °C 1015.4 hPa ESE 6.9 km/h 11.1 km/h 42.9% 0.0 mm
13:29 17.6 °C 4.8 °C 1015.4 hPa Este 6.3 km/h 11.9 km/h 42.7% 0.0 mm
13:34 17.4 °C 4.3 °C 1015.2 hPa ENE 5.8 km/h 14.8 km/h 41.9% 0.0 mm
13:39 17.4 °C 4.4 °C 1015.2 hPa Este 7.3 km/h 14.8 km/h 42% 0.0 mm
13:44 17.6 °C 4.5 °C 1015.2 hPa Este 8.4 km/h 14.8 km/h 42% 0.0 mm
13:49 17.7 °C 4.6 °C 1015.1 hPa ENE 6.9 km/h 14.8 km/h 41.8% 0.0 mm
13:54 17.8 °C 4.4 °C 1015.1 hPa NNE 6.5 km/h 14.8 km/h 41.3% 0.0 mm
13:59 17.7 °C 4 °C 1015.1 hPa ESE 7.2 km/h 14.5 km/h 40.3% 0.0 mm
14:04 17.7 °C 3.9 °C 1015.0 hPa SSE 7.6 km/h 11.3 km/h 39.9% 0.0 mm
14:09 17.8 °C 4.1 °C 1015.0 hPa SE 6.3 km/h 14.8 km/h 40.2% 0.0 mm
14:14 17.9 °C 4.1 °C 1015.0 hPa Este 5.8 km/h 11.9 km/h 40.1% 0.0 mm
14:18 18 °C 3.9 °C 1014.9 hPa ENE 6.1 km/h 14.8 km/h 39.4% 0.0 mm
14:24 17.9 °C 3.3 °C 1014.9 hPa ESE 6.5 km/h 14.5 km/h 37.9% 0.0 mm
14:29 18.1 °C 3.2 °C 1014.9 hPa ENE 5.6 km/h 8 km/h 37.2% 0.0 mm
14:34 18.3 °C 3.6 °C 1014.8 hPa NNE 5 km/h 12.2 km/h 37.7% 0.0 mm
14:39 18.4 °C 3.5 °C 1014.8 hPa ESE 4.8 km/h 14.5 km/h 37.1% 0.0 mm
14:44 18.4 °C 3.3 °C 1014.8 hPa Este 4.6 km/h 12.9 km/h 36.5% 0.0 mm
14:49 18.5 °C 3.3 °C 1014.6 hPa SE 4.6 km/h 9.7 km/h 36.5% 0.0 mm
14:54 18.7 °C 3.3 °C 1014.6 hPa NNE 4.7 km/h 11.1 km/h 36.1% 0.0 mm
14:59 18.6 °C 3.4 °C 1014.6 hPa NE 4.8 km/h 11.3 km/h 36.4% 0.0 mm
15:04 18.4 °C 3.5 °C 1014.4 hPa Este 5 km/h 11.3 km/h 37% 0.0 mm
15:09 18.6 °C 3.4 °C 1014.4 hPa ESE 6.5 km/h 20.9 km/h 36.5% 0.0 mm
15:14 18.6 °C 3.3 °C 1014.4 hPa SE 6.9 km/h 20.9 km/h 36.1% 0.0 mm
15:19 18.6 °C 3.2 °C 1014.3 hPa Sur 9.4 km/h 20.9 km/h 36% 0.0 mm
15:24 18.7 °C 3.2 °C 1014.3 hPa ONO 10 km/h 16.1 km/h 35.8% 0.0 mm
15:29 18.9 °C 3 °C 1014.3 hPa Este 7.1 km/h 16.7 km/h 34.8% 0.0 mm
15:34 19 °C 2.6 °C 1014.1 hPa SE 5.8 km/h 16.1 km/h 33.7% 0.0 mm
15:39 19.1 °C 2.4 °C 1014.1 hPa ESE 5.2 km/h 16.7 km/h 32.9% 0.0 mm
15:44 19 °C 2.3 °C 1014.1 hPa ESE 5 km/h 17.7 km/h 33% 0.0 mm
15:49 18.9 °C 2.6 °C 1014.1 hPa ESE 8.2 km/h 13 km/h 33.7% 0.0 mm
15:54 19.2 °C 4 °C 1014.1 hPa NNE 9.5 km/h 15.6 km/h 36.9% 0.0 mm
15:59 19.1 °C 5.1 °C 1014.1 hPa ESE 7.5 km/h 16.1 km/h 39.8% 0.0 mm
16:04 19 °C 4.6 °C 1013.8 hPa ESE 6.5 km/h 16.7 km/h 38.6% 0.0 mm
16:09 19 °C 4.3 °C 1013.8 hPa SE 7.8 km/h 19.8 km/h 37.9% 0.0 mm
16:14 19.2 °C 6.4 °C 1013.8 hPa ESE 8.4 km/h 24.1 km/h 43.3% 0.0 mm
16:19 19.1 °C 7 °C 1013.6 hPa ESE 11.9 km/h 22.2 km/h 45.3% 0.0 mm
16:24 19.1 °C 7.1 °C 1013.6 hPa ESE 12.2 km/h 24.1 km/h 45.9% 0.0 mm
16:29 18.9 °C 7.1 °C 1013.6 hPa SE 13.5 km/h 24.1 km/h 46.2% 0.0 mm
16:34 18.8 °C 7.2 °C 1013.3 hPa ESE 14 km/h 27.8 km/h 46.9% 0.0 mm
16:39 18.5 °C 7.6 °C 1013.3 hPa ESE 16.4 km/h 29.8 km/h 49% 0.0 mm
16:44 18.4 °C 7.4 °C 1013.3 hPa ESE 17.2 km/h 30.6 km/h 48.7% 0.0 mm
16:49 18.7 °C 7.5 °C 1013.1 hPa ESE 16.7 km/h 29.8 km/h 48.2% 0.0 mm
16:54 18.5 °C 7.2 °C 1013.1 hPa ESE 16.4 km/h 30.6 km/h 47.9% 0.0 mm
16:59 18.3 °C 7.3 °C 1013.1 hPa ESE 16.4 km/h 33.3 km/h 48.8% 0.0 mm
17:04 18 °C 7.1 °C 1012.9 hPa ESE 16.4 km/h 33.8 km/h 49% 0.0 mm
17:09 17.8 °C 7.2 °C 1012.9 hPa ESE 19 km/h 33.8 km/h 49.7% 0.0 mm
17:14 17.7 °C 7.2 °C 1012.9 hPa Este 19.8 km/h 33.8 km/h 50% 0.0 mm
17:19 17.6 °C 7.3 °C 1012.8 hPa ESE 21.3 km/h 33.3 km/h 50.9% 0.0 mm
17:24 17.5 °C 7.3 °C 1012.8 hPa Este 21.7 km/h 33.8 km/h 51% 0.0 mm
17:29 17.4 °C 7.5 °C 1012.8 hPa ESE 21.7 km/h 33.3 km/h 52.1% 0.0 mm
17:34 17.5 °C 7.5 °C 1012.8 hPa ESE 21.7 km/h 29.6 km/h 52% 0.0 mm
17:39 17.4 °C 7.4 °C 1012.8 hPa Este 18.5 km/h 29 km/h 51.6% 0.0 mm
17:44 17.4 °C 7.3 °C 1013.1 hPa ESE 16.4 km/h 27.4 km/h 51.4% 0.0 mm
17:49 17.4 °C 7.4 °C 1013.1 hPa Este 14.6 km/h 22.2 km/h 51.9% 0.0 mm
17:54 17.3 °C 7.2 °C 1013.1 hPa ENE 14 km/h 22.5 km/h 51.6% 0.0 mm
17:59 17.1 °C 7.2 °C 1013.2 hPa ENE 12.9 km/h 22.5 km/h 52% 0.0 mm
18:04 17.1 °C 7.2 °C 1013.2 hPa ENE 12.2 km/h 22.2 km/h 52.2% 0.0 mm
18:09 16.9 °C 7.3 °C 1013.2 hPa NE 13.6 km/h 24.1 km/h 53.3% 0.0 mm
18:14 17.1 °C 7.7 °C 1013.2 hPa NE 14 km/h 20.9 km/h 54% 0.0 mm
18:19 17.2 °C 7.6 °C 1013.2 hPa NNE 12.6 km/h 22.2 km/h 53.4% 0.0 mm
18:24 17.1 °C 7.8 °C 1013.2 hPa NE 11.1 km/h 25.9 km/h 54.5% 0.0 mm
18:29 16.8 °C 7.8 °C 1013.2 hPa ENE 14 km/h 29.6 km/h 55.6% 0.0 mm
18:34 16.7 °C 8 °C 1013.2 hPa Este 14.8 km/h 25.9 km/h 56.3% 0.0 mm
18:39 16.8 °C 8.2 °C 1013.2 hPa Este 13.7 km/h 25.7 km/h 56.8% 0.0 mm
18:44 16.8 °C 7.9 °C 1013.2 hPa ESE 13 km/h 28.2 km/h 56% 0.0 mm
18:49 16.7 °C 7.7 °C 1013.1 hPa ESE 14.7 km/h 29.8 km/h 55.6% 0.0 mm
18:54 16.4 °C 7.6 °C 1013.1 hPa ESE 15.6 km/h 30.6 km/h 56% 0.0 mm
18:59 16.2 °C 7.3 °C 1013.5 hPa Este 17.9 km/h 31.7 km/h 55.7% 0.0 mm
19:04 16 °C 7.2 °C 1013.5 hPa ESE 19 km/h 32.8 km/h 56% 0.0 mm
19:09 15.8 °C 7.1 °C 1013.5 hPa Este 18.5 km/h 33.3 km/h 56% 0.0 mm
19:14 15.7 °C 7 °C 1013.6 hPa Este 18.3 km/h 31.5 km/h 56% 0.0 mm
19:19 15.7 °C 7.2 °C 1013.6 hPa Este 16.5 km/h 32.2 km/h 57% 0.0 mm
19:24 15.6 °C 7.1 °C 1013.6 hPa Este 16.4 km/h 25.9 km/h 57% 0.0 mm
19:29 15.6 °C 7.1 °C 1014.0 hPa ENE 14.5 km/h 20.4 km/h 57% 0.0 mm
19:34 15.6 °C 7 °C 1014.0 hPa NE 14 km/h 16.7 km/h 56.8% 0.0 mm
19:39 15.6 °C 6.9 °C 1014.0 hPa NE 11.1 km/h 16.7 km/h 56.3% 0.0 mm
19:44 15.5 °C 7 °C 1014.5 hPa NNE 9.5 km/h 20.9 km/h 57% 0.0 mm
19:49 15.4 °C 7.3 °C 1014.5 hPa NNE 10.2 km/h 27.8 km/h 58.7% 0.0 mm
19:54 15.2 °C 7.3 °C 1014.5 hPa NNE 10.3 km/h 24.5 km/h 59.4% 0.0 mm
19:59 15 °C 7.1 °C 1015.6 hPa North 14.7 km/h 24.1 km/h 59.1% 0.0 mm
20:04 14.7 °C 7.4 °C 1015.6 hPa NNE 16.1 km/h 34.6 km/h 61.5% 0.2 mm
20:09 14 °C 7.8 °C 1015.6 hPa NNE 16.3 km/h 35.2 km/h 66% 1.0 mm
20:14 13.2 °C 8.3 °C 1016.1 hPa NNE 16.4 km/h 33.8 km/h 72.1% 1.0 mm
20:19 12.6 °C 8.7 °C 1016.1 hPa NNE 17.1 km/h 32.2 km/h 77.1% 1.3 mm
20:24 12.3 °C 9 °C 1016.1 hPa North 17.2 km/h 25.7 km/h 79.8% 1.3 mm
20:29 12.1 °C 9 °C 1016.6 hPa North 14.9 km/h 35.2 km/h 81.2% 1.3 mm
20:34 11.4 °C 8.5 °C 1016.6 hPa NNE 13.7 km/h 31.7 km/h 82.2% 1.5 mm
20:39 11.2 °C 8.5 °C 1016.6 hPa NE 17.5 km/h 30.6 km/h 83.4% 1.5 mm
20:44 10.9 °C 8.3 °C 1016.9 hPa NE 19 km/h 27.8 km/h 83.9% 1.5 mm
20:49 10.8 °C 8.3 °C 1016.9 hPa ENE 16.9 km/h 27.4 km/h 84.4% 2.0 mm
20:54 10.8 °C 8.4 °C 1016.9 hPa ENE 15.6 km/h 25.1 km/h 85% 2.0 mm
20:59 10.7 °C 8.4 °C 1016.9 hPa NE 13.1 km/h 25.9 km/h 85.9% 2.0 mm
21:04 10.5 °C 8.3 °C 1016.6 hPa NE 12.3 km/h 25.9 km/h 86% 2.0 mm
21:09 10.5 °C 8.3 °C 1016.6 hPa NE 12.1 km/h 18.5 km/h 86% 1.8 mm
21:14 10.4 °C 8.2 °C 1016.7 hPa NNE 11.9 km/h 17.2 km/h 86% 1.0 mm
21:19 10.4 °C 8.2 °C 1016.7 hPa NNE 9 km/h 17.7 km/h 86% 1.0 mm
21:24 10.4 °C 8.3 °C 1016.7 hPa NE 8.4 km/h 16.1 km/h 86.8% 0.7 mm
21:29 10.4 °C 8.2 °C 1017.1 hPa NNE 7 km/h 16.7 km/h 86.5% 0.7 mm
21:34 10.4 °C 8.3 °C 1017.1 hPa NNE 6.5 km/h 14.5 km/h 86.9% 0.5 mm
21:39 10.4 °C 8.3 °C 1017.1 hPa NE 7.9 km/h 11.1 km/h 87% 0.8 mm
21:44 10.4 °C 8.3 °C 1017.2 hPa NE 8.4 km/h 9.3 km/h 87% 0.8 mm
21:49 10.4 °C 8.3 °C 1017.2 hPa NE 6.6 km/h 14.8 km/h 87% 0.8 mm
21:54 10.4 °C 8.3 °C 1017.2 hPa NNE 5 km/h 20.4 km/h 87% 0.3 mm
21:59 10.4 °C 8.3 °C 1017.6 hPa NNE 9.5 km/h 20.9 km/h 87% 0.3 mm
22:04 10.3 °C 8.2 °C 1017.6 hPa NNE 10.3 km/h 18.5 km/h 87% 0.3 mm
22:09 10.2 °C 8.1 °C 1017.6 hPa NNE 10.3 km/h 22.2 km/h 87% 0.3 mm
22:14 10.1 °C 8.1 °C 1017.8 hPa NNE 10.3 km/h 22.5 km/h 87% 0.3 mm
22:19 10 °C 8 °C 1017.8 hPa NNE 10.9 km/h 22.5 km/h 87.2% 0.3 mm
22:24 10 °C 8 °C 1017.8 hPa NNE 11.1 km/h 22.2 km/h 87.6% 0.3 mm
22:29 9.9 °C 8 °C 1018.0 hPa NNE 11.1 km/h 19.3 km/h 88% 0.3 mm
22:34 9.9 °C 8 °C 1018.0 hPa NNE 11.1 km/h 15.6 km/h 88% 0.3 mm
22:39 9.8 °C 8.1 °C 1018.0 hPa NNE 10.4 km/h 16.7 km/h 88.9% 0.3 mm
22:44 9.8 °C 8.1 °C 1018.2 hPa NNE 10 km/h 14.8 km/h 89% 0.0 mm
22:49 9.8 °C 8.1 °C 1018.2 hPa NNE 9.7 km/h 14.5 km/h 89.4% 0.0 mm
22:54 9.7 °C 8.1 °C 1018.2 hPa NNE 9.5 km/h 13.7 km/h 90% 0.0 mm
22:59 9.7 °C 8.1 °C 1018.4 hPa NNE 8.7 km/h 13 km/h 90% 0.0 mm
23:04 9.6 °C 8.1 °C 1018.4 hPa NNE 8.4 km/h 13 km/h 90% 0.0 mm
23:09 9.6 °C 8.1 °C 1018.4 hPa North 7.1 km/h 11.3 km/h 90% 0.0 mm
23:14 9.6 °C 8.1 °C 1018.5 hPa North 6.4 km/h 11.1 km/h 90% 0.0 mm
23:19 9.6 °C 8.1 °C 1018.5 hPa NNE 6.5 km/h 11.3 km/h 90% 0.0 mm
23:24 9.6 °C 8.1 °C 1018.5 hPa NNE 6.5 km/h 11.3 km/h 90% 0.0 mm
23:29 9.7 °C 8.1 °C 1018.5 hPa NNE 5.9 km/h 11.3 km/h 90% 0.0 mm
23:34 9.6 °C 8.1 °C 1018.4 hPa NNE 5.8 km/h 11.1 km/h 90% 0.0 mm
23:39 9.6 °C 8.1 °C 1018.4 hPa NNE 6.2 km/h 11.3 km/h 90% 0.0 mm
23:44 9.6 °C 8.1 °C 1018.4 hPa NNE 6.4 km/h 9.3 km/h 90% 0.0 mm
23:49 9.6 °C 8.1 °C 1018.4 hPa North 6.1 km/h 9.7 km/h 90% 0.0 mm
23:54 9.6 °C 8.1 °C 1018.4 hPa North 5.8 km/h 7.4 km/h 90% 0.0 mm
23:59 9.6 °C 8.1 °C 1018.4 hPa North 4.9 km/h 8 km/h 90% 0.0 mm
Murcia-Puente Tocinos, España
Compliments of Weather Underground - 3 mb

La estación de MeteoMurcia.com, publica sus datos en los siguientes proyectos:

Weather Underground PWS IMURCIAP2 Meteoclimatic www.awekas.at

W3Counter
Web Analytics